Date String (YYYY-MM-DD hh:mm:ss) UTC,Instrument flags,Ambient pressure (hPa),Sample flow (lpm),Bypass flow (lpm),Sample temperature (°C),Ambient temperature (°C),ASC tube jacket temperature (°C),LED temperature (°C),Box temperature (°C),Sample RH (%),Span deviation,Mass concentration (μg/m³),Mass concentration (μg/m³),Mass concentration (μg/m³)
DateTimeUTC,F1_M11,P_M11,Q1_M11,Q2_M11,T1_M11,T2_M11,T3_M11,T4_M11,T5_M11,U1_M11,ZSPAN_M11,X0_M11,X2_M11,X1_M11
2021-11-13 02:00:00,,0830.8,5.01,0.00,27.1,26.2,00.0,36.1,28.9,10.6,0000.0,0020.31,0004.22,0002.54
2021-11-13 02:01:00,,0830.8,5.00,0.00,27.1,26.3,00.0,36.1,28.9,10.7,0000.0,0020.14,0004.20,0002.50
2021-11-13 02:02:00,,0830.8,4.99,0.00,27.1,26.3,00.0,36.1,28.9,10.7,0000.0,0021.57,0004.18,0002.50
2021-11-13 02:03:00,,0830.8,5.01,0.00,27.1,26.2,00.0,36.1,28.9,10.7,0000.0,0021.56,0004.17,0002.48
2021-11-13 02:04:00,,0830.8,4.99,0.00,27.1,26.2,00.0,36.1,28.9,10.7,0000.0,0021.57,0004.15,0002.46
2021-11-13 02:05:00,,0830.8,5.02,0.00,27.1,26.2,00.0,36.1,28.9,10.7,0000.0,0022.12,0004.11,0002.45
2021-11-13 02:06:00,,0830.8,4.99,0.00,27.1,26.3,00.0,36.1,28.9,10.7,0000.0,0022.20,0004.08,0002.41
2021-11-13 02:07:00,,0830.8,5.00,0.00,27.1,26.3,00.0,36.1,28.9,10.6,0000.0,0021.53,0004.09,0002.39
2021-11-13 02:08:00,,0830.8,5.00,0.00,27.1,26.3,00.0,36.1,28.9,10.6,0000.0,0020.50,0004.08,0002.37
2021-11-13 02:09:00,,0830.8,4.99,0.00,27.1,26.3,00.0,36.1,28.9,10.6,0000.0,0022.44,0004.06,0002.33
2021-11-13 02:10:00,,0830.8,5.01,0.00,27.1,26.3,00.0,36.1,28.9,10.6,0000.0,0022.63,0004.06,0002.30
2021-11-13 02:11:00,,0830.8,4.99,0.00,27.1,26.3,00.0,36.1,28.9,10.5,0000.0,0022.76,0004.09,0002.31
2021-11-13 02:12:00,,0830.8,5.00,0.00,27.1,26.3,00.0,36.1,28.9,10.6,0000.0,0023.13,0004.12,0002.33
2021-11-13 02:13:00,,0830.8,5.00,0.00,27.1,26.3,00.0,36.1,29.0,10.6,0000.0,0021.57,0004.16,0002.34
2021-11-13 02:14:00,,0830.9,5.00,0.00,27.1,26.3,00.0,36.1,29.0,10.6,0000.0,0022.36,0004.21,0002.36
2021-11-13 02:15:00,,0830.8,5.01,0.00,27.1,26.3,00.0,36.1,28.9,10.6,0000.0,0022.17,0004.21,0002.38
2021-11-13 02:16:00,,0830.8,5.00,0.00,27.1,26.3,00.0,36.1,28.9,10.6,0000.0,0021.50,0004.23,0002.38
2021-11-13 02:17:00,,0830.7,5.00,0.00,27.1,26.3,00.0,36.1,29.0,10.6,0000.0,0022.22,0004.22,0002.38
2021-11-13 02:18:00,,0830.7,5.00,0.00,27.1,26.3,00.0,36.1,29.0,10.6,0000.0,0023.13,0004.21,0002.39
2021-11-13 02:19:00,,0830.8,4.99,0.00,27.1,26.3,00.0,36.1,29.0,10.5,0000.0,0023.32,0004.19,0002.38
2021-11-13 02:20:00,,0830.8,5.01,0.00,27.1,26.2,00.0,36.1,29.0,10.5,0000.0,0020.90,0004.23,0002.42
2021-11-13 02:21:00,,0830.8,4.99,0.00,27.1,26.2,00.0,36.1,28.9,10.5,0000.0,0019.52,0004.27,0002.45
2021-11-13 02:22:00,,0830.8,5.00,0.00,27.1,26.2,00.0,36.1,28.9,10.5,0000.0,0020.73,0004.28,0002.45
2021-11-13 02:23:00,,0830.8,4.99,0.00,27.1,26.3,00.0,36.1,29.0,10.5,0000.0,0020.14,0004.30,0002.45
2021-11-13 02:24:00,,0830.8,5.00,0.00,27.1,26.3,00.0,36.1,28.9,10.5,0000.0,0019.99,0004.33,0002.44
2021-11-13 02:25:00,,0830.8,4.99,0.00,27.1,26.2,00.0,36.1,29.0,10.5,0000.0,0019.20,0004.29,0002.44
2021-11-13 02:26:00,,0830.8,4.98,0.00,27.1,26.3,00.0,36.1,29.0,10.6,0000.0,0019.06,0004.29,0002.44
2021-11-13 02:27:00,,0830.7,5.00,0.00,27.1,26.3,00.0,36.1,29.0,10.6,0000.0,0019.00,0004.32,0002.45
2021-11-13 02:28:00,,0830.7,5.00,0.00,27.1,26.3,00.0,36.1,29.0,10.6,0000.0,0018.88,0004.38,0002.43
2021-11-13 02:29:00,,0830.6,5.01,0.00,27.1,26.2,00.0,36.1,29.0,10.6,0000.0,0017.70,0004.40,0002.43
2021-11-13 02:30:00,,0830.6,5.00,0.00,27.1,26.3,00.0,36.1,29.0,10.5,0000.0,0018.07,0004.42,0002.44
2021-11-13 02:31:00,,0830.7,5.00,0.00,27.1,26.3,00.0,36.1,29.0,10.5,0000.0,0019.86,0004.41,0002.43
2021-11-13 02:32:00,,0830.6,4.98,0.00,27.1,26.3,00.0,36.1,29.0,10.5,0000.0,0021.34,0004.41,0002.42
2021-11-13 02:33:00,,0830.6,5.01,0.00,27.1,26.3,00.0,36.1,28.9,10.5,0000.0,0021.09,0004.38,0002.42
2021-11-13 02:34:00,,0830.6,4.99,0.00,27.1,26.3,00.0,36.1,28.9,10.5,0000.0,0020.99,0004.42,0002.40
2021-11-13 02:35:00,,0830.6,5.00,0.00,27.1,26.3,00.0,36.1,28.9,10.5,0000.0,0020.82,0004.41,0002.42
2021-11-13 02:36:00,,0830.5,5.00,0.00,27.1,26.3,00.0,36.1,28.9,10.5,0000.0,0020.50,0004.50,0002.44
2021-11-13 02:37:00,,0830.6,4.99,0.00,27.1,26.3,00.0,36.1,28.9,10.5,0000.0,0020.14,0004.55,0002.45
2021-11-13 02:38:00,,0830.6,5.01,0.00,27.1,26.3,00.0,36.1,28.9,10.5,0000.0,0021.18,0004.53,0002.45
2021-11-13 02:39:00,,0830.6,5.00,0.00,27.1,26.2,00.0,36.1,28.9,10.5,0000.0,0020.88,0004.50,0002.47
2021-11-13 02:40:00,,0830.6,4.99,0.00,27.1,26.2,00.0,36.1,28.9,10.5,0000.0,0021.77,0004.54,0002.47
2021-11-13 02:41:00,,0830.6,5.00,0.00,27.1,26.2,00.0,36.1,28.9,10.5,0000.0,0021.86,0004.52,0002.48
2021-11-13 02:42:00,,0830.6,5.00,0.00,27.1,26.2,00.0,36.1,28.9,10.5,0000.0,0020.11,0004.54,0002.47
2021-11-13 02:43:00,,0830.5,5.00,0.00,27.1,26.2,00.0,36.1,28.9,10.6,0000.0,0018.91,0004.48,0002.46
2021-11-13 02:44:00,,0830.5,5.01,0.00,27.1,26.2,00.0,36.1,28.9,10.8,0000.0,0018.37,0004.47,0002.44
2021-11-13 02:45:00,,0830.5,5.00,0.00,27.1,26.2,00.0,36.1,28.9,11.0,0000.0,0017.77,0004.37,0002.41
2021-11-13 02:46:00,,0830.4,5.00,0.00,27.1,26.2,00.0,36.1,28.9,10.6,0000.0,0018.91,0004.26,0002.38
2021-11-13 02:47:00,,0830.5,5.00,0.00,27.1,26.2,00.0,36.1,28.9,10.6,0000.0,0019.85,0004.13,0002.36
2021-11-13 02:48:00,,0830.5,5.01,0.00,27.1,26.2,00.0,36.1,28.9,10.6,0000.0,0019.22,0004.09,0002.34
2021-11-13 02:49:00,,0830.5,5.00,0.00,27.1,26.2,00.0,36.1,28.9,10.6,0000.0,0018.23,0004.12,0002.32
2021-11-13 02:50:00,,0830.5,5.00,0.00,27.1,26.2,00.0,36.1,28.9,10.6,0000.0,0017.64,0004.13,0002.31
2021-11-13 02:51:00,,0830.5,5.00,0.00,27.1,26.2,00.0,36.1,28.9,10.7,0000.0,0018.89,0004.09,0002.32
2021-11-13 02:52:00,,0830.5,5.01,0.00,27.1,26.2,00.0,36.1,28.8,10.7,0000.0,0018.70,0004.08,0002.31
2021-11-13 02:53:00,,0830.5,5.01,0.00,27.1,26.2,00.0,36.1,28.8,10.6,0000.0,0020.11,0004.05,0002.31
2021-11-13 02:54:00,,0830.4,5.01,0.00,27.0,26.1,00.0,36.1,28.8,10.7,0000.0,0020.01,0004.08,0002.33
2021-11-13 02:55:00,,0830.4,5.00,0.00,27.0,26.1,00.0,36.1,28.8,11.4,0000.0,0019.33,0004.03,0002.28
2021-11-13 02:56:00,,0830.4,5.00,0.00,27.0,26.1,00.0,36.1,28.8,10.8,0000.0,0019.47,0004.03,0002.29
2021-11-13 02:57:00,,0830.4,5.00,0.00,27.0,26.1,00.0,36.1,28.8,10.7,0000.0,0019.75,0004.06,0002.29
2021-11-13 02:58:00,,0830.5,4.99,0.00,27.0,26.1,00.0,36.1,28.8,10.7,0000.0,0019.25,0004.08,0002.29
2021-11-13 02:59:00,,0830.5,5.01,0.00,27.0,26.1,00.0,36.1,28.7,10.7,0000.0,0019.77,0004.02,0002.29
